Location: Newark
(40.7360°N, 74.1730°W)
Time: 17:15:47
(UTC-05:00)

Amateur Radio Satellites - All Passes

Search period start: 02 December 2016 16:45
Search period end: 03 December 2016 16:45
Location: Newark, 40.7360°N, 74.1730°W

Satellite Date Start Highest point End Downlink Frequencies (MHz)
Time Altitude Azimuth
CUTE-I 02 Dec 16:50:51 16:55:52 42° 69° (ENE) 17:00:55 437.470
AO-7 02 Dec 16:57:13 17:00:05 12° 273° (W) 17:02:58 29.400- 29.500
ISS 02 Dec 16:59:58 17:02:58 33° 136° (SE) 17:05:59 145.825
GOMX 1 02 Dec 17:01:20 17:05:45 85° 78° (ENE) 17:10:33 467.674
BRITE-PL 02 Dec 17:05:38 17:09:26 33° 264° (W) 17:13:26 437.365/2234.400
AIST 2 02 Dec 17:13:45 17:17:43 38° 52° (NE) 17:21:40 435.215
RS-15 02 Dec 17:14:14 17:26:41 85° 241° (WSW) 17:38:40 29.354- 29.394
Cubesat XI-IV 02 Dec 17:15:05 17:20:25 69° 74° (ENE) 17:25:47 437.490
LilacSat-2 02 Dec 17:23:52 17:27:45 88° 262° (W) 17:31:38 437.200
KKS-1 02 Dec 17:25:24 17:28:37 20° 295° (WNW) 17:31:48 437.445
NOAA 15 02 Dec 17:26:47 17:32:02 82° 257° (WSW) 17:37:18 137.62
DOVE 4 02 Dec 17:32:08 17:36:46 74° 76° (ENE) 17:41:44 437.250
HORYU 2 02 Dec 17:38:19 17:41:23 18° 267° (W) 17:44:26 437.375
STARS 02 Dec 17:42:19 17:45:58 26° 293° (WNW) 17:49:36 437.465
CANX-2 02 Dec 17:43:08 17:45:39 16° 65° (ENE) 17:48:11 2200.000
CINEMA 3 02 Dec 17:43:35 17:47:39 27° 67° (ENE) 17:51:48 145.822/145.860
HO-68 02 Dec 17:44:58 17:51:08 32° 62° (ENE) 17:57:18 435.675
CUBESAT XI-V 02 Dec 17:53:38 17:57:38 29° 291° (WNW) 18:01:37 437.345
NOAA 18 02 Dec 18:05:24 18:10:53 64° 258° (WSW) 18:16:25 137.9125
O/OREOS (USA 219) 02 Dec 18:08:20 18:10:55 15° 307° (NW) 18:13:28 437.305
Cosmos 2491 02 Dec 18:08:32 18:17:15 67° 80° (E) 18:25:52 435.465 / 435.565
SEEDS 02 Dec 18:16:21 18:19:28 21° 68° (ENE) 18:22:35 437.485
STRAND 1 02 Dec 18:16:28 18:19:57 18° 92° (E) 18:23:24 437.568
Cosmos 2504 02 Dec 18:28:27 18:33:15 17° 76° (ENE) 18:38:09 435.465 / 435.565
CUBEBUG 2 02 Dec 18:29:19 18:32:48 21° 66° (ENE) 18:36:18 437.445
CUTE-I 02 Dec 18:31:44 18:36:03 24° 266° (W) 18:40:23 437.470
COMPASS 1 02 Dec 18:34:26 18:37:37 22° 68° (ENE) 18:40:48 437.405
ISS 02 Dec 18:36:29 18:39:28 31° 333° (NNW) 18:42:29 145.825
YUBILEINY 02 Dec 18:37:11 18:45:12 44° 87° (E) 18:53:16 435.215
FUNcube-1 02 Dec 18:46:55 18:48:10 11° 62° (ENE) 18:49:23 145.935
AIST 2 02 Dec 18:52:46 18:55:57 21° 248° (WSW) 18:59:08 435.215
Cubesat XI-IV 02 Dec 18:58:03 19:00:58 15° 270° (W) 19:03:54 437.490
CUTE 1.7 + AOD 2 02 Dec 18:59:41 19:03:54 85° 258° (WSW) 19:08:09 437.475
DOVE 4 02 Dec 19:13:42 19:15:06 11° 273° (W) 19:16:31 437.250
CANX-2 02 Dec 19:17:05 19:21:08 45° 261° (W) 19:25:12 2200.000
UWE-3 02 Dec 19:19:13 19:23:36 42° 72° (ENE) 19:27:58 435.000/436.395/437.385
CINEMA 3 02 Dec 19:20:10 19:24:35 35° 264° (W) 19:29:08 145.822/145.860
Oscar 11 02 Dec 19:20:24 19:23:46 22° 68° (ENE) 19:27:08 145.826/435.025
RS-15 02 Dec 19:29:01 19:37:16 22° 262° (W) 19:45:23 29.354- 29.394
HO-68 02 Dec 19:31:40 19:38:33 50° 260° (W) 19:45:31 435.675
AAUSAT CUBESAT 2 02 Dec 19:42:35 19:46:41 80° 260° (W) 19:50:48 437.432
DELFI C3 02 Dec 19:43:14 19:45:02 13° 65° (ENE) 19:46:50 145.870
SEEDS 02 Dec 19:51:14 19:54:58 32° 263° (W) 19:58:43 437.485
SO-50 02 Dec 19:53:08 19:56:46 22° 112° (ESE) 20:00:23 436.795
STRAND 1 02 Dec 19:54:27 19:59:24 52° 288° (WNW) 20:04:19 437.568
AIST 1 02 Dec 20:03:12 20:07:28 78° 97° (E) 20:11:49
CUBEBUG 2 02 Dec 20:04:35 20:09:05 43° 262° (W) 20:13:38 437.445
Cosmos 2491 02 Dec 20:06:37 20:13:16 25° 279° (W) 20:19:55 435.465 / 435.565
ZACube-1 02 Dec 20:09:07 20:13:43 87° 77° (ENE) 20:18:17 437.345
COMPASS 1 02 Dec 20:09:22 20:13:00 29° 264° (W) 20:16:38 437.405
CUSAT 1 02 Dec 20:10:57 20:14:03 33° 79° (E) 20:17:53 437.405
ISS 02 Dec 20:15:02 20:16:46 13° 353° (N) 20:18:30 145.825
Cosmos 2504 02 Dec 20:16:58 20:25:11 87° 95° (E) 20:33:59 435.465 / 435.565
FUNcube-1 02 Dec 20:19:11 20:23:45 79° 258° (WSW) 20:28:18 145.935
YUBILEINY 02 Dec 20:33:57 20:41:59 41° 287° (WNW) 20:50:07 435.215
HUMSAT D 02 Dec 20:36:49 20:40:29 29° 70° (ENE) 20:44:07 437.325/437.525
PCSat 02 Dec 20:50:57 20:56:13 48° 56° (NE) 21:01:26 145.827
PRISM 02 Dec 20:54:02 20:58:05 50° 100° (E) 21:02:08 437.425
Oscar 11 02 Dec 20:55:51 20:59:42 31° 263° (W) 21:03:36 145.826/435.025
UWE-3 02 Dec 20:56:49 21:00:11 20° 267° (W) 21:03:34 435.000/436.395/437.385
DELFI C3 02 Dec 21:15:38 21:19:25 48° 261° (W) 21:23:14 145.870
SO-50 02 Dec 21:32:23 21:36:58 45° 308° (NW) 21:41:30 436.795
CUBEBUG 1 02 Dec 21:47:47 21:50:28 16° 64° (ENE) 21:53:12 437.445
VELOX 1 02 Dec 21:49:45 21:51:24 12° 62° (ENE) 21:53:04 145.980
UNISAT 6 02 Dec 21:51:35 21:55:53 46° 99° (E) 22:00:03 437.425
ISS 02 Dec 21:52:13 21:54:20 16° 13° (NNE) 21:56:26 145.825
CUSAT 1 02 Dec 21:54:04 21:55:50 13° 266° (W) 21:57:47 437.405
DANDE 02 Dec 22:01:10 22:03:41 35° 263° (W) 22:06:34 436.750
HUMSAT D 02 Dec 22:12:41 22:16:04 23° 265° (W) 22:19:26 437.325/437.525
Cosmos 2504 02 Dec 22:13:59 22:19:49 20° 298° (WNW) 22:25:53 435.465 / 435.565
DX 1 02 Dec 22:15:46 22:17:33 12° 62° (ENE) 22:19:18 434.975-435.025
50 SAT 02 Dec 22:18:10 22:20:14 15° 67° (ENE) 22:22:18 437.505
TIGRISAT 02 Dec 22:22:45 22:27:12 84° 284° (WNW) 22:31:31 435.000
ESTCUBE 1 02 Dec 22:22:58 22:27:23 63° 74° (ENE) 22:31:49 437.505/2401.250
ANTELSAT 02 Dec 22:23:10 22:27:38 78° 284° (WNW) 22:31:57 437.575/2403.000
UKube-1 02 Dec 22:30:14 22:32:14 13° 62° (ENE) 22:34:14 .
PRISM 02 Dec 22:30:45 22:32:57 14° 296° (WNW) 22:35:10 437.425
PCSat 02 Dec 22:35:02 22:39:16 24° 253° (WSW) 22:43:29 145.827
AISAT 02 Dec 22:45:50 22:50:04 49° 73° (ENE) 22:54:22 437.250
SPROUT 02 Dec 22:48:51 22:52:39 31° 70° (ENE) 22:56:28 437.525
JAS-2 02 Dec 22:51:59 22:56:43 35° 98° (E) 23:01:33 435.910
GONETS M04 02 Dec 23:17:27 23:22:36 17° 77° (ENE) 23:27:45
NANOSAT C BR1 02 Dec 23:18:26 23:22:28 41° 99° (E) 23:26:27 145.865
QB50P2 02 Dec 23:20:26 23:24:36 51° 100° (E) 23:28:43 145.880/145.840
BUGSAT 1 02 Dec 23:20:57 23:23:26 15° 92° (E) 23:25:53 437.445
POLYITAN 1 02 Dec 23:21:07 23:25:14 48° 99° (E) 23:29:19 437.675
CUBEBUG 1 02 Dec 23:22:11 23:26:21 47° 261° (W) 23:30:36 437.445
VELOX 1 02 Dec 23:22:54 23:27:16 69° 259° (W) 23:31:41 145.980
ISS 02 Dec 23:28:10 23:31:25 52° 32° (NNE) 23:34:39 145.825
UNISAT 6 02 Dec 23:29:24 23:32:11 16° 296° (WNW) 23:34:55 437.425
Cosmos 2499 02 Dec 23:30:20 23:36:42 24° 80° (E) 23:43:16 435.465 / 435.565
QB50P1 02 Dec 23:35:20 23:39:36 72° 102° (ESE) 23:43:48 145.935-145.965
DUCHIFAT 1 02 Dec 23:42:30 23:46:45 74° 103° (ESE) 23:50:56 145.980
DX 1 02 Dec 23:48:51 23:53:09 65° 258° (WSW) 23:57:31 434.975-435.025
50 SAT 02 Dec 23:50:08 23:53:16 31° 262° (W) 23:56:26 437.505
POPSAT HIP 1 02 Dec 23:56:31 00:00:45 67° 286° (WNW) 00:04:56 437.405
ESTCUBE 1 03 Dec 00:02:59 00:04:35 12° 270° (W) 00:06:12 437.505/2401.250
UKube-1 03 Dec 00:03:30 00:07:45 60° 259° (W) 00:12:02 .
SWISSCUBE 03 Dec 00:09:49 00:10:47 11° 59° (ENE) 00:11:44 437.505
BEESAT 03 Dec 00:14:20 00:15:14 10° 59° (ENE) 00:16:08 436.000
Oscar 19 03 Dec 00:21:46 00:25:17 18° 92° (E) 00:28:49 437.125/150
TISAT 1 03 Dec 00:23:40 00:27:49 58° 74° (ENE) 00:32:01 437.305
AISAT 03 Dec 00:24:16 00:26:48 15° 268° (W) 00:29:21 437.250
SPROUT 03 Dec 00:25:13 00:28:35 22° 266° (W) 00:31:58 437.525
AUBIESAT-1 03 Dec 00:33:32 00:36:47 23° 61° (ENE) 00:40:14 437.475
ITUPSAT 1 03 Dec 00:36:55 00:40:06 18° 63° (ENE) 00:43:16 437.325
JAS-2 03 Dec 00:37:26 00:41:43 27° 294° (WNW) 00:46:03 435.910
M-CUBED/EXP-1 PRIME 03 Dec 00:42:03 00:45:41 34° 64° (ENE) 00:49:36 437.505
BUGSAT 1 03 Dec 00:55:00 00:59:01 43° 288° (WNW) 01:02:57 437.445
NANOSAT C BR1 03 Dec 00:55:06 00:57:51 17° 295° (WNW) 01:00:35 145.865
QB50P2 03 Dec 00:57:40 00:59:57 14° 296° (WNW) 01:02:14 145.880/145.840
POLYITAN 1 03 Dec 00:58:12 01:00:36 15° 296° (WNW) 01:03:01 437.675
O/OREOS (USA 219) 03 Dec 00:59:18 01:01:25 13° 52° (NE) 01:03:31 437.305
ISS 03 Dec 01:05:21 01:07:39 18° 228° (SW) 01:09:56 145.825
GONETS M04 03 Dec 01:09:23 01:18:08 90° 276° (W) 01:26:53
QB50P1 03 Dec 01:13:46 01:14:44 11° 298° (WNW) 01:15:43 145.935-145.965
Cosmos 2499 03 Dec 01:20:28 01:28:52 72° 280° (W) 01:37:46 435.465 / 435.565
DUCHIFAT 1 03 Dec 01:21:10 01:21:47 10° 299° (WNW) 01:22:25 145.980
Gurwin Techsat 1B 03 Dec 01:26:34 01:31:31 38° 98° (E) 01:36:26 435.225
AO-85 03 Dec 01:36:35 01:40:05 19° 111° (ESE) 01:43:25 145.980
PHONESAT 2.4 03 Dec 01:40:28 01:42:42 24° 156° (SSE) 01:44:56 2401.200-2431.200
SWISSCUBE 03 Dec 01:43:01 01:47:49 90° 303° (WNW) 01:52:37 437.505
BEESAT 03 Dec 01:47:28 01:52:15 90° 77° (ENE) 01:57:03 436.000
MOZHAYETS 4 03 Dec 01:49:56 01:53:26 22° 67° (ENE) 01:56:57
Oscar 19 03 Dec 01:59:52 02:04:55 53° 288° (WNW) 02:09:56 437.125/150
TISAT 1 03 Dec 02:02:20 02:03:49 12° 270° (W) 02:05:18 437.305
AUBIESAT-1 03 Dec 02:07:27 02:11:00 31° 259° (W) 02:14:49 437.475
ITUPSAT 1 03 Dec 02:12:51 02:17:30 51° 260° (W) 02:22:11 437.325
M-CUBED/EXP-1 PRIME 03 Dec 02:17:21 02:20:17 20° 263° (W) 02:23:23 437.505
ITAMSAT 1 03 Dec 02:20:37 02:25:01 27° 96° (E) 02:29:22 435.822/435.867
O/OREOS (USA 219) 03 Dec 02:36:52 02:41:21 71° 250° (WSW) 02:45:47 437.305
KKS-1 03 Dec 02:45:44 02:49:49 36° 70° (ENE) 02:53:55 437.445
AO-7 03 Dec 02:59:44 03:07:33 41° 99° (E) 03:15:17 29.400- 29.500
STARS 03 Dec 03:02:15 03:05:54 26° 67° (ENE) 03:09:34 437.465
Gurwin Techsat 1B 03 Dec 03:06:51 03:11:16 27° 294° (WNW) 03:15:41 435.225
GONETS M04 03 Dec 03:10:28 03:16:12 19° 298° (WNW) 03:21:58
PHONESAT 2.4 03 Dec 03:15:07 03:17:46 76° 171° (S) 03:20:26 2401.200-2431.200
AO-85 03 Dec 03:15:25 03:20:14 52° 306° (NW) 03:24:43 145.980
Cosmos 2499 03 Dec 03:19:11 03:23:46 15° 302° (WNW) 03:28:27 435.465 / 435.565
CUBESAT XI-V 03 Dec 03:19:29 03:23:18 27° 68° (ENE) 03:27:08 437.345
MOZHAYETS 4 03 Dec 03:26:07 03:30:22 37° 263° (W) 03:34:38
ITAMSAT 1 03 Dec 03:59:48 04:04:30 36° 292° (WNW) 04:09:10 435.822/435.867
KKS-1 03 Dec 04:23:07 04:26:28 21° 266° (W) 04:29:49 437.445
SO-50 03 Dec 04:24:13 04:27:38 20° 43° (NE) 04:30:59 436.795
STARS 03 Dec 04:38:17 04:42:08 29° 264° (W) 04:46:00 437.465
YUBILEINY 03 Dec 04:48:00 04:54:21 21° 64° (ENE) 05:00:40 435.215
PHONESAT 2.4 03 Dec 04:50:22 04:53:02 74° 187° (S) 04:55:41 2401.200-2431.200
AO-7 03 Dec 04:52:29 05:00:19 46° 297° (WNW) 05:08:09 29.400- 29.500
BEESAT 3 03 Dec 04:53:02 04:56:00 21° 112° (ESE) 04:59:00 437.485
CUBESAT XI-V 03 Dec 04:56:34 05:00:34 29° 264° (W) 05:04:36 437.345
GOMX 1 03 Dec 05:03:01 05:07:47 30° 95° (E) 05:12:33 467.674
BRITE-PL 03 Dec 05:08:38 05:13:59 75° 102° (ESE) 05:19:35 437.365/2234.400
CUTE-I 03 Dec 05:09:15 05:12:35 17° 91° (E) 05:15:55 437.470
BEESAT 2 03 Dec 05:15:06 05:17:38 17° 110° (ESE) 05:20:12 435.950
Cosmos 2491 03 Dec 05:18:11 05:22:13 14° 75° (ENE) 05:26:15 435.465 / 435.565
HORYU 2 03 Dec 05:27:39 05:32:06 88° 107° (ESE) 05:36:31 437.375
DOVE 4 03 Dec 05:31:43 05:35:58 24° 93° (E) 05:40:08 437.250
STRAND 1 03 Dec 05:31:50 05:36:04 27° 66° (ENE) 05:40:19 437.568
RS-15 03 Dec 05:32:22 05:37:19 14° 94° (E) 05:42:19 29.354- 29.394
Cubesat XI-IV 03 Dec 05:33:07 05:37:41 28° 95° (E) 05:42:11 437.490
NOAA 15 03 Dec 05:42:20 05:47:14 38° 98° (E) 05:52:07 137.62
SO-50 03 Dec 06:04:00 06:08:24 52° 242° (WSW) 06:12:42 436.795
Cosmos 2504 03 Dec 06:10:33 06:18:25 34° 70° (ENE) 06:25:54 435.465 / 435.565
AIST 1 03 Dec 06:11:12 06:14:23 19° 72° (ENE) 06:17:32
PHONESAT 2.4 03 Dec 06:25:54 06:28:05 22° 204° (SSW) 06:30:16 2401.200-2431.200
NOAA 18 03 Dec 06:27:43 06:33:11 56° 102° (ESE) 06:38:35 137.9125
BEESAT 3 03 Dec 06:29:53 06:33:26 32° 309° (NW) 06:37:02 437.485
LilacSat-2 03 Dec 06:31:41 06:35:23 53° 285° (WNW) 06:39:02 437.200
GOMX 1 03 Dec 06:40:53 06:45:49 37° 290° (WNW) 06:50:49 467.674
YUBILEINY 03 Dec 06:43:23 06:52:14 83° 266° (W) 07:01:05 435.215
CUTE 1.7 + AOD 2 03 Dec 06:45:53 06:48:34 16° 92° (E) 06:51:16 437.475
CUTE-I 03 Dec 06:47:46 06:53:02 60° 288° (WNW) 06:58:15 437.470
BRITE-PL 03 Dec 06:48:47 06:51:53 16° 297° (WNW) 06:55:04 437.365/2234.400
AO-7 03 Dec 06:49:53 06:50:59 10° 319° (NW) 06:52:04 29.400- 29.500
BEESAT 2 03 Dec 06:51:21 06:55:05 41° 307° (NW) 06:58:54 435.950
HO-68 03 Dec 06:59:38 07:06:03 33° 96° (E) 07:12:23 435.675
CANX-2 03 Dec 07:02:21 07:06:03 29° 96° (E) 07:09:44 2200.000
Cosmos 2491 03 Dec 07:08:44 07:17:30 78° 95° (E) 07:26:16 435.465 / 435.565
DOVE 4 03 Dec 07:08:46 07:13:47 43° 289° (WNW) 07:18:41 437.250
STRAND 1 03 Dec 07:10:19 07:15:03 37° 262° (W) 07:19:48 437.568
Cubesat XI-IV 03 Dec 07:12:54 07:17:47 37° 292° (WNW) 07:22:37 437.490
CINEMA 3 03 Dec 07:14:50 07:19:41 62° 100° (E) 07:24:18 145.822/145.860
NOAA 15 03 Dec 07:22:27 07:26:49 27° 294° (WNW) 07:31:12 137.62
AAUSAT CUBESAT 2 03 Dec 07:26:05 07:28:38 16° 92° (E) 07:31:12 437.432
SEEDS 03 Dec 07:34:46 07:38:42 39° 98° (E) 07:42:38 437.485
RS-15 03 Dec 07:35:39 07:47:10 67° 115° (ESE) 07:59:14 29.354- 29.394
PRISM 03 Dec 07:43:07 07:46:46 33° 70° (ENE) 07:50:27 437.425
AIST 1 03 Dec 07:48:03 07:52:04 36° 269° (W) 07:56:05
COMPASS 1 03 Dec 07:51:43 07:55:39 40° 98° (E) 07:59:35 437.405
CUBEBUG 2 03 Dec 07:55:52 08:00:05 40° 97° (E) 08:04:07 437.445
ZACube-1 03 Dec 07:59:09 08:01:50 16° 92° (E) 08:04:29 437.345
Cosmos 2504 03 Dec 08:03:38 08:12:08 54° 270° (W) 08:20:13 435.465 / 435.565
FUNcube-1 03 Dec 08:08:33 08:11:35 19° 93° (E) 08:14:35 145.935
NOAA 18 03 Dec 08:09:22 08:13:23 21° 298° (WNW) 08:17:22 137.9125
CUTE 1.7 + AOD 2 03 Dec 08:20:38 08:24:34 40° 288° (WNW) 08:28:30 437.475
CANX-2 03 Dec 08:38:26 08:41:45 23° 292° (WNW) 08:45:03 2200.000
Oscar 11 03 Dec 08:42:44 08:46:52 45° 99° (E) 08:50:59 145.826/435.025
YUBILEINY 03 Dec 08:42:56 08:47:35 16° 284° (WNW) 08:52:15 435.215
UWE-3 03 Dec 08:45:21 08:49:44 87° 287° (WNW) 08:53:58 435.000/436.395/437.385
HO-68 03 Dec 08:47:04 08:53:53 47° 294° (WNW) 09:00:41 435.675
AIST 2 03 Dec 08:48:38 08:52:45 86° 119° (ESE) 08:56:55 435.215
UNISAT 6 03 Dec 08:49:33 08:53:57 41° 72° (ENE) 08:58:21 437.425
CINEMA 3 03 Dec 08:53:28 08:56:12 15° 298° (WNW) 08:58:54 145.822/145.860
DELFI C3 03 Dec 08:53:36 08:56:35 20° 94° (E) 08:59:33 145.870
AAUSAT CUBESAT 2 03 Dec 09:00:24 09:04:17 40° 288° (WNW) 09:08:08 437.432
JAS-2 03 Dec 09:05:17 09:09:27 18° 62° (ENE) 09:13:20 435.910
Cosmos 2491 03 Dec 09:08:45 09:15:18 23° 295° (WNW) 09:21:52 435.465 / 435.565
SEEDS 03 Dec 09:11:21 09:14:05 17° 294° (WNW) 09:16:50 437.485
CUSAT 1 03 Dec 09:14:22 09:17:36 33° 97° (E) 09:20:18 437.405
PRISM 03 Dec 09:19:18 09:22:09 18° 266° (W) 09:25:01 437.425
TIGRISAT 03 Dec 09:20:15 09:24:58 81° 76° (ENE) 09:29:40 435.000
ANTELSAT 03 Dec 09:20:51 09:25:33 87° 80° (E) 09:30:15 437.575/2403.000
DANDE 03 Dec 09:27:34 09:30:48 17° 95° (E) 09:33:33 436.750
COMPASS 1 03 Dec 09:28:14 09:30:52 17° 294° (WNW) 09:33:31 437.405
CUBEBUG 2 03 Dec 09:33:17 09:36:22 19° 295° (WNW) 09:39:22 437.445
ZACube-1 03 Dec 09:34:19 09:38:19 40° 288° (WNW) 09:42:14 437.345
FUNcube-1 03 Dec 09:44:05 09:47:56 34° 289° (WNW) 09:51:42 145.935
RS-15 03 Dec 09:49:17 10:00:26 43° 320° (NW) 10:12:04 29.354- 29.394
HUMSAT D 03 Dec 09:55:13 09:59:14 55° 100° (E) 10:03:13 437.325/437.525
AO-85 03 Dec 10:08:16 10:10:29 14° 41° (NE) 10:12:40 145.980
NANOSAT C BR1 03 Dec 10:10:10 10:13:54 30° 69° (ENE) 10:17:38 145.865
BUGSAT 1 03 Dec 10:11:40 10:13:02 11° 62° (ENE) 10:14:25 437.445
QB50P2 03 Dec 10:12:33 10:16:28 37° 71° (ENE) 10:20:26 145.880/145.840
POLYITAN 1 03 Dec 10:13:12 10:17:07 35° 71° (ENE) 10:21:03 437.675
ESTCUBE 1 03 Dec 10:17:16 10:19:31 14° 91° (E) 10:21:46 437.505/2401.250
Oscar 11 03 Dec 10:19:58 10:22:37 16° 295° (WNW) 10:25:17 145.826/435.025
QB50P1 03 Dec 10:27:04 10:31:12 50° 73° (ENE) 10:35:22 145.935-145.965
UNISAT 6 03 Dec 10:27:21 10:30:47 20° 267° (W) 10:34:13 437.425
DELFI C3 03 Dec 10:27:57 10:31:24 29° 289° (WNW) 10:34:50 145.870
AIST 2 03 Dec 10:29:57 10:31:49 13° 320° (NW) 10:33:42 435.215
DUCHIFAT 1 03 Dec 10:33:38 10:37:45 50° 73° (ENE) 10:41:53 145.980
JAS-2 03 Dec 10:47:18 10:54:03 74° 258° (WSW) 11:00:01 435.910
POPSAT HIP 1 03 Dec 10:48:05 10:52:22 86° 79° (E) 10:56:42 437.405
DANDE 03 Dec 11:08:41 11:13:24 37° 281° (W) 11:17:04 436.750
CUBEBUG 1 03 Dec 11:10:58 11:14:56 31° 97° (E) 11:18:52 437.445
Cosmos 2499 03 Dec 11:12:45 11:20:58 44° 73° (ENE) 11:28:38 435.465 / 435.565
VELOX 1 03 Dec 11:13:43 11:17:15 22° 95° (E) 11:20:45 145.980
50 SAT 03 Dec 11:16:54 11:19:18 17° 94° (E) 11:21:41 437.505
GONETS M04 03 Dec 11:20:10 11:28:26 45° 74° (ENE) 11:36:41
PCSat 03 Dec 11:32:13 11:37:21 46° 112° (ESE) 11:42:31 145.827
HUMSAT D 03 Dec 11:32:39 11:34:22 12° 296° (WNW) 11:36:04 437.325/437.525
DX 1 03 Dec 11:37:52 11:41:15 21° 95° (E) 11:44:36 434.975-435.025
Oscar 19 03 Dec 11:38:11 11:42:24 26° 66° (ENE) 11:46:37 437.125/150
BUGSAT 1 03 Dec 11:43:37 11:47:49 68° 259° (WSW) 11:52:04 437.445
NANOSAT C BR1 03 Dec 11:46:14 11:49:37 23° 265° (W) 11:53:00 145.865
AO-85 03 Dec 11:47:25 11:51:20 62° 241° (WSW) 11:55:08 145.980
QB50P2 03 Dec 11:49:22 11:52:23 19° 267° (W) 11:55:25 145.880/145.840
POLYITAN 1 03 Dec 11:49:52 11:52:59 20° 266° (W) 11:56:08 437.675
UKube-1 03 Dec 11:51:19 11:54:42 22° 95° (E) 11:58:05 .
ESTCUBE 1 03 Dec 11:52:14 11:56:39 56° 287° (WNW) 12:01:04 437.505/2401.250
QB50P1 03 Dec 12:05:03 12:07:15 14° 269° (W) 12:09:27 145.935-145.965
RS-15 03 Dec 12:08:31 12:17:33 23° 353° (N) 12:26:42 29.354- 29.394
SPROUT 03 Dec 12:10:04 12:14:20 62° 101° (E) 12:18:34 437.525
DUCHIFAT 1 03 Dec 12:11:35 12:13:42 13° 269° (W) 12:15:50 145.980
AISAT 03 Dec 12:12:12 12:16:42 79° 283° (WNW) 12:21:08 437.250
AO-7 03 Dec 12:12:15 12:15:17 12° 44° (NE) 12:18:20 29.400- 29.500
Gurwin Techsat 1B 03 Dec 12:47:13 12:52:26 60° 72° (ENE) 12:57:40 435.225
CUBEBUG 1 03 Dec 12:47:29 12:51:03 24° 293° (WNW) 12:54:36 437.445
50 SAT 03 Dec 12:49:34 12:52:36 27° 289° (WNW) 12:55:38 437.505
VELOX 1 03 Dec 12:49:43 12:53:44 33° 290° (WNW) 12:57:44 145.980
Cosmos 2499 03 Dec 13:06:07 13:13:58 40° 274° (W) 13:21:21 435.465 / 435.565
BEESAT 3 03 Dec 13:10:10 13:12:30 15° 43° (NE) 13:14:50 437.485
DX 1 03 Dec 13:13:31 13:17:29 34° 290° (WNW) 13:21:26 434.975-435.025
PCSat 03 Dec 13:16:21 13:20:56 27° 311° (NW) 13:25:32 145.827
Oscar 19 03 Dec 13:16:49 13:21:31 37° 262° (W) 13:26:17 437.125/150
GONETS M04 03 Dec 13:17:15 13:25:05 39° 274° (W) 13:32:57
UKube-1 03 Dec 13:26:55 13:30:46 32° 291° (WNW) 13:34:37 .
BEESAT 2 03 Dec 13:32:54 13:34:47 13° 41° (NE) 13:36:40 435.950
ITAMSAT 1 03 Dec 13:38:04 13:42:57 42° 69° (ENE) 13:47:50 435.822/435.867
TISAT 1 03 Dec 13:43:08 13:47:22 74° 285° (WNW) 13:51:33 437.305
SWISSCUBE 03 Dec 13:44:05 13:47:51 23° 95° (E) 13:51:36 437.505
AUBIESAT-1 03 Dec 13:46:16 13:49:36 19° 97° (E) 13:52:49 437.475
SPROUT 03 Dec 13:47:56 13:49:43 12° 297° (WNW) 13:51:31 437.525
BEESAT 03 Dec 13:48:29 13:52:15 23° 95° (E) 13:55:58 436.000
M-CUBED/EXP-1 PRIME 03 Dec 13:55:13 13:59:21 30° 100° (E) 14:03:21 437.505
AO-7 03 Dec 13:58:13 14:06:12 55° 65° (ENE) 14:14:14 29.400- 29.500
ITUPSAT 1 03 Dec 14:13:31 14:18:00 40° 99° (E) 14:22:28 437.325
RS-15 03 Dec 14:25:10 14:35:43 31° 28° (NNE) 14:46:06 29.354- 29.394
Gurwin Techsat 1B 03 Dec 14:29:23 14:32:46 17° 269° (W) 14:36:09 435.225
BEESAT 3 03 Dec 14:46:35 14:50:31 62° 241° (WSW) 14:54:26 437.485
BEESAT 2 03 Dec 15:09:04 15:13:06 80° 241° (WSW) 15:17:07 435.950
O/OREOS (USA 219) 03 Dec 15:11:57 15:14:13 14° 99° (E) 15:16:31 437.305
ITAMSAT 1 03 Dec 15:18:24 15:22:33 24° 266° (W) 15:26:43 435.822/435.867
AUBIESAT-1 03 Dec 15:19:45 15:24:09 44° 293° (WNW) 15:28:24 437.475
MOZHAYETS 4 03 Dec 15:20:53 15:25:20 50° 100° (E) 15:29:45
SWISSCUBE 03 Dec 15:21:23 15:25:43 36° 291° (WNW) 15:30:02 437.505
BEESAT 03 Dec 15:25:45 15:30:05 36° 291° (WNW) 15:34:26 436.000
M-CUBED/EXP-1 PRIME 03 Dec 15:29:37 15:33:43 30° 297° (WNW) 15:37:42 437.505
AO-7 03 Dec 15:51:57 15:59:13 34° 263° (W) 16:06:35 29.400- 29.500
ITUPSAT 1 03 Dec 15:51:57 15:55:34 22° 295° (WNW) 15:59:09 437.325
ISS 03 Dec 16:08:56 16:11:14 18° 132° (SE) 16:13:32 145.825
GOMX 1 03 Dec 16:11:23 16:15:07 26° 67° (ENE) 16:19:05 467.674
KKS-1 03 Dec 16:12:48 16:17:18 76° 102° (ESE) 16:21:46 437.445
NOAA 18 03 Dec 16:16:17 16:19:19 15° 59° (ENE) 16:22:22 137.9125
BRITE-PL 03 Dec 16:19:51 16:24:03 77° 76° (ENE) 16:28:33 437.365/2234.400
HORYU 2 03 Dec 16:24:54 16:29:22 78° 77° (ENE) 16:33:53 437.375
STARS 03 Dec 16:27:09 16:31:29 49° 100° (E) 16:35:45 437.465
CUTE-I 03 Dec 16:30:20 16:34:50 28° 66° (ENE) 16:39:20 437.470
DOVE 4 03 Dec 16:37:03 16:40:39 22° 65° (ENE) 16:44:25 437.250
